owner,sensor,date,latitude,longitude,sea_surface_height_above_sea_level,qcFlag 
COMPS,ioos:station:USF.COMPS:FHP:1,2015-05-01T00:00:00Z,28.1530,-82.8010,-0.059,1111122 
COMPS,ioos:station:USF.COMPS:FHP:1,2015-05-01T00:06:00Z,28.1530,-82.8010,-0.042,1111122 
COMPS,ioos:station:USF.COMPS:FHP:1,2015-05-01T00:12:00Z,28.1530,-82.8010,-0.03,1111122 
COMPS,ioos:station:USF.COMPS:FHP:1,2015-05-01T00:18:00Z,28.1530,-82.8010,-0.023,1111122 
COMPS,ioos:station:USF.COMPS:FHP:1,2015-05-01T00:30:00Z,28.1530,-82.8010,0.002,1111122 
COMPS,ioos:station:USF.COMPS:FHP:1,2015-05-01T00:42:00Z,28.1530,-82.8010,0.024,1111122 
COMPS,ioos:station:USF.COMPS:FHP:1,2015-05-01T00:48:00Z,28.1530,-82.8010,0.043,1111122 
COMPS,ioos:station:USF.COMPS:FHP:1,2015-05-01T00:54:00Z,28.1530,-82.8010,0.061,1111122 
COMPS,ioos:station:USF.COMPS:FHP:1,2015-05-01T01:00:00Z,28.1530,-82.8010,0.059,1111122 
COMPS,ioos:station:USF.COMPS:FHP:1,2015-05-01T01:06:00Z,28.1530,-82.8010,0.091,1111122 
COMPS,ioos:station:USF.COMPS:FHP:1,2015-05-01T01:12:00Z,28.1530,-82.8010,0.094,1111122 
COMPS,ioos:station:USF.COMPS:FHP:1,2015-05-01T01:18:00Z,28.1530,-82.8010,0.116,1111122 
COMPS,ioos:station:USF.COMPS:FHP:1,2015-05-01T01:24:00Z,28.1530,-82.8010,0.125,1111122 
COMPS,ioos:station:USF.COMPS:FHP:1,2015-05-01T01:30:00Z,28.1530,-82.8010,0.14,1111122 
COMPS,ioos:station:USF.COMPS:FHP:1,2015-05-01T01:42:00Z,28.1530,-82.8010,0.166,1111122 
COMPS,ioos:station:USF.COMPS:FHP:1,2015-05-01T01:48:00Z,28.1530,-82.8010,0.195,1111122 
COMPS,ioos:station:USF.COMPS:FHP:1,2015-05-01T01:54:00Z,28.1530,-82.8010,0.197,1111122 
COMPS,ioos:station:USF.COMPS:FHP:1,2015-05-01T02:00:00Z,28.1530,-82.8010,0.214,1111122 
COMPS,ioos:station:USF.COMPS:FHP:1,2015-05-01T02:06:00Z,28.1530,-82.8010,0.232,1111122 
COMPS,ioos:station:USF.COMPS:FHP:1,2015-05-01T02:12:00Z,28.1530,-82.8010,0.248,1111122 
COMPS,ioos:station:USF.COMPS:FHP:1,2015-05-01T02:18:00Z,28.1530,-82.8010,0.259,1111122 
COMPS,ioos:station:USF.COMPS:FHP:1,2015-05-01T02:24:00Z,28.1530,-82.8010,0.261,1111122 
COMPS,ioos:station:USF.COMPS:FHP:1,2015-05-01T02:30:00Z,28.1530,-82.8010,0.266,1111122 
COMPS,ioos:station:USF.COMPS:FHP:1,2015-05-01T02:36:00Z,28.1530,-82.8010,0.268,1111122 
COMPS,ioos:station:USF.COMPS:FHP:1,2015-05-01T02:42:00Z,28.1530,-82.8010,0.268,1111122 
COMPS,ioos:station:USF.COMPS:FHP:1,2015-05-01T02:48:00Z,28.1530,-82.8010,0.277,1111122 
COMPS,ioos:station:USF.COMPS:FHP:1,2015-05-01T02:54:00Z,28.1530,-82.8010,0.275,1111122 
COMPS,ioos:station:USF.COMPS:FHP:1,2015-05-01T03:00:00Z,28.1530,-82.8010,0.282,1111122 
COMPS,ioos:station:USF.COMPS:FHP:1,2015-05-01T03:06:00Z,28.1530,-82.8010,0.279,1111122 
COMPS,ioos:station:USF.COMPS:FHP:1,2015-05-01T03:12:00Z,28.1530,-82.8010,0.278,1111122 
COMPS,ioos:station:USF.COMPS:FHP:1,2015-05-01T03:18:00Z,28.1530,-82.8010,0.285,1111122 
COMPS,ioos:station:USF.COMPS:FHP:1,2015-05-01T03:24:00Z,28.1530,-82.8010,0.284,1111122 
COMPS,ioos:station:USF.COMPS:FHP:1,2015-05-01T03:30:00Z,28.1530,-82.8010,0.266,1111122 
COMPS,ioos:station:USF.COMPS:FHP:1,2015-05-01T03:36:00Z,28.1530,-82.8010,0.283,1111122 
COMPS,ioos:station:USF.COMPS:FHP:1,2015-05-01T03:42:00Z,28.1530,-82.8010,0.281,1111122 
COMPS,ioos:station:USF.COMPS:FHP:1,2015-05-01T03:48:00Z,28.1530,-82.8010,0.285,1111122 
COMPS,ioos:station:USF.COMPS:FHP:1,2015-05-01T03:54:00Z,28.1530,-82.8010,0.286,1111122 
COMPS,ioos:station:USF.COMPS:FHP:1,2015-05-01T04:00:00Z,28.1530,-82.8010,0.263,1111122 
COMPS,ioos:station:USF.COMPS:FHP:1,2015-05-01T04:06:00Z,28.1530,-82.8010,0.261,1111122 
COMPS,ioos:station:USF.COMPS:FHP:1,2015-05-01T04:12:00Z,28.1530,-82.8010,0.269,1111122 
COMPS,ioos:station:USF.COMPS:FHP:1,2015-05-01T04:18:00Z,28.1530,-82.8010,0.256,1111122 
COMPS,ioos:station:USF.COMPS:FHP:1,2015-05-01T04:24:00Z,28.1530,-82.8010,0.262,1111122 
COMPS,ioos:station:USF.COMPS:FHP:1,2015-05-01T04:30:00Z,28.1530,-82.8010,0.24,1111122 
COMPS,ioos:station:USF.COMPS:FHP:1,2015-05-01T04:36:00Z,28.1530,-82.8010,0.241,1111122 
COMPS,ioos:station:USF.COMPS:FHP:1,2015-05-01T04:42:00Z,28.1530,-82.8010,0.223,1111122 
COMPS,ioos:station:USF.COMPS:FHP:1,2015-05-01T04:48:00Z,28.1530,-82.8010,0.234,1111122 
COMPS,ioos:station:USF.COMPS:FHP:1,2015-05-01T04:54:00Z,28.1530,-82.8010,0.231,1111122 
COMPS,ioos:station:USF.COMPS:FHP:1,2015-05-01T05:00:00Z,28.1530,-82.8010,0.228,1111122 
COMPS,ioos:station:USF.COMPS:FHP:1,2015-05-01T05:06:00Z,28.1530,-82.8010,0.216,1111122 
COMPS,ioos:station:USF.COMPS:FHP:1,2015-05-01T05:12:00Z,28.1530,-82.8010,0.217,1111122 
COMPS,ioos:station:USF.COMPS:FHP:1,2015-05-01T05:18:00Z,28.1530,-82.8010,0.203,1111122 
COMPS,ioos:station:USF.COMPS:FHP:1,2015-05-01T05:24:00Z,28.1530,-82.8010,0.201,1111122 
COMPS,ioos:station:USF.COMPS:FHP:1,2015-05-01T05:30:00Z,28.1530,-82.8010,0.18,1111122 
COMPS,ioos:station:USF.COMPS:FHP:1,2015-05-01T05:36:00Z,28.1530,-82.8010,0.179,1111122 
COMPS,ioos:station:USF.COMPS:FHP:1,2015-05-01T05:42:00Z,28.1530,-82.8010,0.156,1111122 
COMPS,ioos:station:USF.COMPS:FHP:1,2015-05-01T05:48:00Z,28.1530,-82.8010,0.156,1111122 
COMPS,ioos:station:USF.COMPS:FHP:1,2015-05-01T05:54:00Z,28.1530,-82.8010,0.129,1111122 
COMPS,ioos:station:USF.COMPS:FHP:1,2015-05-01T06:00:00Z,28.1530,-82.8010,0.126,1111122 
COMPS,ioos:station:USF.COMPS:FHP:1,2015-05-01T06:06:00Z,28.1530,-82.8010,0.115,1111122 
COMPS,ioos:station:USF.COMPS:FHP:1,2015-05-01T06:12:00Z,28.1530,-82.8010,0.102,1111122 
COMPS,ioos:station:USF.COMPS:FHP:1,2015-05-01T06:18:00Z,28.1530,-82.8010,0.098,1111122 
COMPS,ioos:station:USF.COMPS:FHP:1,2015-05-01T06:24:00Z,28.1530,-82.8010,0.077,1111122 
COMPS,ioos:station:USF.COMPS:FHP:1,2015-05-01T06:30:00Z,28.1530,-82.8010,0.065,1111122 
COMPS,ioos:station:USF.COMPS:FHP:1,2015-05-01T06:36:00Z,28.1530,-82.8010,0.047,1111122 
COMPS,ioos:station:USF.COMPS:FHP:1,2015-05-01T06:42:00Z,28.1530,-82.8010,0.034,1111122 
COMPS,ioos:station:USF.COMPS:FHP:1,2015-05-01T06:48:00Z,28.1530,-82.8010,0.021,1111122 
COMPS,ioos:station:USF.COMPS:FHP:1,2015-05-01T06:54:00Z,28.1530,-82.8010,0.004,1111122 
COMPS,ioos:station:USF.COMPS:FHP:1,2015-05-01T07:00:00Z,28.1530,-82.8010,-0.009,1111122 
COMPS,ioos:station:USF.COMPS:FHP:1,2015-05-01T07:06:00Z,28.1530,-82.8010,-0.025,1111122 
COMPS,ioos:station:USF.COMPS:FHP:1,2015-05-01T07:12:00Z,28.1530,-82.8010,-0.036,1111122 
COMPS,ioos:station:USF.COMPS:FHP:1,2015-05-01T07:18:00Z,28.1530,-82.8010,-0.051,1111122 
COMPS,ioos:station:USF.COMPS:FHP:1,2015-05-01T07:24:00Z,28.1530,-82.8010,-0.06,1111122 
COMPS,ioos:station:USF.COMPS:FHP:1,2015-05-01T07:30:00Z,28.1530,-82.8010,-0.06,1111122 
COMPS,ioos:station:USF.COMPS:FHP:1,2015-05-01T07:36:00Z,28.1530,-82.8010,-0.07,1111122 
COMPS,ioos:station:USF.COMPS:FHP:1,2015-05-01T07:42:00Z,28.1530,-82.8010,-0.076,1111122 
COMPS,ioos:station:USF.COMPS:FHP:1,2015-05-01T07:48:00Z,28.1530,-82.8010,-0.097,1111122 
COMPS,ioos:station:USF.COMPS:FHP:1,2015-05-01T07:54:00Z,28.1530,-82.8010,-0.101,1111122 
COMPS,ioos:station:USF.COMPS:FHP:1,2015-05-01T08:00:00Z,28.1530,-82.8010,-0.117,1111122 
COMPS,ioos:station:USF.COMPS:FHP:1,2015-05-01T08:06:00Z,28.1530,-82.8010,-0.116,1111122 
COMPS,ioos:station:USF.COMPS:FHP:1,2015-05-01T08:12:00Z,28.1530,-82.8010,-0.131,1111122 
COMPS,ioos:station:USF.COMPS:FHP:1,2015-05-01T08:18:00Z,28.1530,-82.8010,-0.142,1111122 
COMPS,ioos:station:USF.COMPS:FHP:1,2015-05-01T08:24:00Z,28.1530,-82.8010,-0.146,1111122 
COMPS,ioos:station:USF.COMPS:FHP:1,2015-05-01T08:30:00Z,28.1530,-82.8010,-0.152,1111122 
COMPS,ioos:station:USF.COMPS:FHP:1,2015-05-01T08:36:00Z,28.1530,-82.8010,-0.161,1111122 
COMPS,ioos:station:USF.COMPS:FHP:1,2015-05-01T08:42:00Z,28.1530,-82.8010,-0.173,1111122 
COMPS,ioos:station:USF.COMPS:FHP:1,2015-05-01T08:48:00Z,28.1530,-82.8010,-0.177,1111122 
COMPS,ioos:station:USF.COMPS:FHP:1,2015-05-01T08:54:00Z,28.1530,-82.8010,-0.182,1111122 
COMPS,ioos:station:USF.COMPS:FHP:1,2015-05-01T09:00:00Z,28.1530,-82.8010,-0.195,1111122 
COMPS,ioos:station:USF.COMPS:FHP:1,2015-05-01T09:06:00Z,28.1530,-82.8010,-0.2,1111122 
COMPS,ioos:station:USF.COMPS:FHP:1,2015-05-01T09:12:00Z,28.1530,-82.8010,-0.199,1111122 
COMPS,ioos:station:USF.COMPS:FHP:1,2015-05-01T09:18:00Z,28.1530,-82.8010,-0.206,1111122 
COMPS,ioos:station:USF.COMPS:FHP:1,2015-05-01T09:24:00Z,28.1530,-82.8010,-0.205,1111122 
COMPS,ioos:station:USF.COMPS:FHP:1,2015-05-01T09:30:00Z,28.1530,-82.8010,-0.206,1111122 
COMPS,ioos:station:USF.COMPS:FHP:1,2015-05-01T09:36:00Z,28.1530,-82.8010,-0.201,1111122 
COMPS,ioos:station:USF.COMPS:FHP:1,2015-05-01T09:42:00Z,28.1530,-82.8010,-0.206,1111122 
COMPS,ioos:station:USF.COMPS:FHP:1,2015-05-01T09:48:00Z,28.1530,-82.8010,-0.202,1111122 
COMPS,ioos:station:USF.COMPS:FHP:1,2015-05-01T09:54:00Z,28.1530,-82.8010,-0.187,1111122 
COMPS,ioos:station:USF.COMPS:FHP:1,2015-05-01T10:00:00Z,28.1530,-82.8010,-0.179,1111122 
COMPS,ioos:station:USF.COMPS:FHP:1,2015-05-01T10:06:00Z,28.1530,-82.8010,-0.175,1111122 
COMPS,ioos:station:USF.COMPS:FHP:1,2015-05-01T10:12:00Z,28.1530,-82.8010,-0.178,1111122 
COMPS,ioos:station:USF.COMPS:FHP:1,2015-05-01T10:18:00Z,28.1530,-82.8010,-0.159,1111122 
COMPS,ioos:station:USF.COMPS:FHP:1,2015-05-01T10:24:00Z,28.1530,-82.8010,-0.147,1111122 
COMPS,ioos:station:USF.COMPS:FHP:1,2015-05-01T10:30:00Z,28.1530,-82.8010,-0.135,1111122 
COMPS,ioos:station:USF.COMPS:FHP:1,2015-05-01T10:36:00Z,28.1530,-82.8010,-0.124,1111122 
COMPS,ioos:station:USF.COMPS:FHP:1,2015-05-01T10:42:00Z,28.1530,-82.8010,-0.114,1111122 
COMPS,ioos:station:USF.COMPS:FHP:1,2015-05-01T10:48:00Z,28.1530,-82.8010,-0.102,1111122 
COMPS,ioos:station:USF.COMPS:FHP:1,2015-05-01T10:54:00Z,28.1530,-82.8010,-0.091,1111122 
COMPS,ioos:station:USF.COMPS:FHP:1,2015-05-01T11:00:00Z,28.1530,-82.8010,-0.077,1111122 
COMPS,ioos:station:USF.COMPS:FHP:1,2015-05-01T11:06:00Z,28.1530,-82.8010,-0.066,1111122 
COMPS,ioos:station:USF.COMPS:FHP:1,2015-05-01T11:12:00Z,28.1530,-82.8010,-0.054,1111122 
COMPS,ioos:station:USF.COMPS:FHP:1,2015-05-01T11:18:00Z,28.1530,-82.8010,-0.043,1111122 
COMPS,ioos:station:USF.COMPS:FHP:1,2015-05-01T11:24:00Z,28.1530,-82.8010,-0.027,1111122 
COMPS,ioos:station:USF.COMPS:FHP:1,2015-05-01T11:30:00Z,28.1530,-82.8010,-0.016,1111122 
COMPS,ioos:station:USF.COMPS:FHP:1,2015-05-01T11:36:00Z,28.1530,-82.8010,-0.001,1111122 
COMPS,ioos:station:USF.COMPS:FHP:1,2015-05-01T11:42:00Z,28.1530,-82.8010,0.009,1111122 
COMPS,ioos:station:USF.COMPS:FHP:1,2015-05-01T11:48:00Z,28.1530,-82.8010,0.022,1111122 
COMPS,ioos:station:USF.COMPS:FHP:1,2015-05-01T11:54:00Z,28.1530,-82.8010,0.042,1111122 
COMPS,ioos:station:USF.COMPS:FHP:1,2015-05-01T12:00:00Z,28.1530,-82.8010,0.057,1111122 
COMPS,ioos:station:USF.COMPS:FHP:1,2015-05-01T12:06:00Z,28.1530,-82.8010,0.073,1111122 
COMPS,ioos:station:USF.COMPS:FHP:1,2015-05-01T12:12:00Z,28.1530,-82.8010,0.094,1111122 
COMPS,ioos:station:USF.COMPS:FHP:1,2015-05-01T12:18:00Z,28.1530,-82.8010,0.107,1111122 
COMPS,ioos:station:USF.COMPS:FHP:1,2015-05-01T12:24:00Z,28.1530,-82.8010,0.13,1111122 
COMPS,ioos:station:USF.COMPS:FHP:1,2015-05-01T12:30:00Z,28.1530,-82.8010,0.144,1111122 
COMPS,ioos:station:USF.COMPS:FHP:1,2015-05-01T12:42:00Z,28.1530,-82.8010,0.176,1111122 
COMPS,ioos:station:USF.COMPS:FHP:1,2015-05-01T12:48:00Z,28.1530,-82.8010,0.187,1111122 
COMPS,ioos:station:USF.COMPS:FHP:1,2015-05-01T12:54:00Z,28.1530,-82.8010,0.206,1111122 
COMPS,ioos:station:USF.COMPS:FHP:1,2015-05-01T13:00:00Z,28.1530,-82.8010,0.218,1111122 
COMPS,ioos:station:USF.COMPS:FHP:1,2015-05-01T13:06:00Z,28.1530,-82.8010,0.236,1111122 
COMPS,ioos:station:USF.COMPS:FHP:1,2015-05-01T13:12:00Z,28.1530,-82.8010,0.255,1111122 
COMPS,ioos:station:USF.COMPS:FHP:1,2015-05-01T13:18:00Z,28.1530,-82.8010,0.273,1111122 
COMPS,ioos:station:USF.COMPS:FHP:1,2015-05-01T13:24:00Z,28.1530,-82.8010,0.286,1111122 
COMPS,ioos:station:USF.COMPS:FHP:1,2015-05-01T13:30:00Z,28.1530,-82.8010,0.304,1111122 
COMPS,ioos:station:USF.COMPS:FHP:1,2015-05-01T13:36:00Z,28.1530,-82.8010,0.32,1111122 
COMPS,ioos:station:USF.COMPS:FHP:1,2015-05-01T13:42:00Z,28.1530,-82.8010,0.338,1111122 
COMPS,ioos:station:USF.COMPS:FHP:1,2015-05-01T13:48:00Z,28.1530,-82.8010,0.349,1111122 
COMPS,ioos:station:USF.COMPS:FHP:1,2015-05-01T13:54:00Z,28.1530,-82.8010,0.36,1111122 
COMPS,ioos:station:USF.COMPS:FHP:1,2015-05-01T14:00:00Z,28.1530,-82.8010,0.374,1111122 
COMPS,ioos:station:USF.COMPS:FHP:1,2015-05-01T14:06:00Z,28.1530,-82.8010,0.381,1111122 
COMPS,ioos:station:USF.COMPS:FHP:1,2015-05-01T14:12:00Z,28.1530,-82.8010,0.39,1111122 
COMPS,ioos:station:USF.COMPS:FHP:1,2015-05-01T14:18:00Z,28.1530,-82.8010,0.397,1111122 
COMPS,ioos:station:USF.COMPS:FHP:1,2015-05-01T14:24:00Z,28.1530,-82.8010,0.397,1111122 
COMPS,ioos:station:USF.COMPS:FHP:1,2015-05-01T14:30:00Z,28.1530,-82.8010,0.411,1111122 
COMPS,ioos:station:USF.COMPS:FHP:1,2015-05-01T14:36:00Z,28.1530,-82.8010,0.416,1111122 
COMPS,ioos:station:USF.COMPS:FHP:1,2015-05-01T14:42:00Z,28.1530,-82.8010,0.418,1111122 
COMPS,ioos:station:USF.COMPS:FHP:1,2015-05-01T14:48:00Z,28.1530,-82.8010,0.421,1111122 
COMPS,ioos:station:USF.COMPS:FHP:1,2015-05-01T14:54:00Z,28.1530,-82.8010,0.428,1111122 
COMPS,ioos:station:USF.COMPS:FHP:1,2015-05-01T15:00:00Z,28.1530,-82.8010,0.431,1111122 
COMPS,ioos:station:USF.COMPS:FHP:1,2015-05-01T15:06:00Z,28.1530,-82.8010,0.441,1111122 
COMPS,ioos:station:USF.COMPS:FHP:1,2015-05-01T15:12:00Z,28.1530,-82.8010,0.432,1111122 
COMPS,ioos:station:USF.COMPS:FHP:1,2015-05-01T15:18:00Z,28.1530,-82.8010,0.435,1111122 
COMPS,ioos:station:USF.COMPS:FHP:1,2015-05-01T15:24:00Z,28.1530,-82.8010,0.427,1111122 
COMPS,ioos:station:USF.COMPS:FHP:1,2015-05-01T15:30:00Z,28.1530,-82.8010,0.431,1111122 
COMPS,ioos:station:USF.COMPS:FHP:1,2015-05-01T15:36:00Z,28.1530,-82.8010,0.424,1111122 
COMPS,ioos:station:USF.COMPS:FHP:1,2015-05-01T15:42:00Z,28.1530,-82.8010,0.425,1111122 
COMPS,ioos:station:USF.COMPS:FHP:1,2015-05-01T15:48:00Z,28.1530,-82.8010,0.425,1111122 
COMPS,ioos:station:USF.COMPS:FHP:1,2015-05-01T15:54:00Z,28.1530,-82.8010,0.421,1111122 
COMPS,ioos:station:USF.COMPS:FHP:1,2015-05-01T16:00:00Z,28.1530,-82.8010,0.415,1111122 
COMPS,ioos:station:USF.COMPS:FHP:1,2015-05-01T16:06:00Z,28.1530,-82.8010,0.405,1111122 
COMPS,ioos:station:USF.COMPS:FHP:1,2015-05-01T16:12:00Z,28.1530,-82.8010,0.398,1111122 
COMPS,ioos:station:USF.COMPS:FHP:1,2015-05-01T16:18:00Z,28.1530,-82.8010,0.385,1111122 
COMPS,ioos:station:USF.COMPS:FHP:1,2015-05-01T16:24:00Z,28.1530,-82.8010,0.378,1111122 
COMPS,ioos:station:USF.COMPS:FHP:1,2015-05-01T16:30:00Z,28.1530,-82.8010,0.369,1111122 
COMPS,ioos:station:USF.COMPS:FHP:1,2015-05-01T16:36:00Z,28.1530,-82.8010,0.362,1111122 
COMPS,ioos:station:USF.COMPS:FHP:1,2015-05-01T16:42:00Z,28.1530,-82.8010,0.352,1111122 
COMPS,ioos:station:USF.COMPS:FHP:1,2015-05-01T16:48:00Z,28.1530,-82.8010,0.344,1111122 
COMPS,ioos:station:USF.COMPS:FHP:1,2015-05-01T16:54:00Z,28.1530,-82.8010,0.341,1111122 
COMPS,ioos:station:USF.COMPS:FHP:1,2015-05-01T17:00:00Z,28.1530,-82.8010,0.34,1111122 
COMPS,ioos:station:USF.COMPS:FHP:1,2015-05-01T17:06:00Z,28.1530,-82.8010,0.33,1111122 
COMPS,ioos:station:USF.COMPS:FHP:1,2015-05-01T17:12:00Z,28.1530,-82.8010,0.322,1111122 
COMPS,ioos:station:USF.COMPS:FHP:1,2015-05-01T17:18:00Z,28.1530,-82.8010,0.312,1111122 
COMPS,ioos:station:USF.COMPS:FHP:1,2015-05-01T17:24:00Z,28.1530,-82.8010,0.305,1111122 
COMPS,ioos:station:USF.COMPS:FHP:1,2015-05-01T17:30:00Z,28.1530,-82.8010,0.292,1111122 
COMPS,ioos:station:USF.COMPS:FHP:1,2015-05-01T17:36:00Z,28.1530,-82.8010,0.275,1111122 
COMPS,ioos:station:USF.COMPS:FHP:1,2015-05-01T17:42:00Z,28.1530,-82.8010,0.255,1111122 
COMPS,ioos:station:USF.COMPS:FHP:1,2015-05-01T17:48:00Z,28.1530,-82.8010,0.242,1111122 
COMPS,ioos:station:USF.COMPS:FHP:1,2015-05-01T17:54:00Z,28.1530,-82.8010,0.228,1111122 
COMPS,ioos:station:USF.COMPS:FHP:1,2015-05-01T18:00:00Z,28.1530,-82.8010,0.209,1111122 
COMPS,ioos:station:USF.COMPS:FHP:1,2015-05-01T18:06:00Z,28.1530,-82.8010,0.188,1111122 
COMPS,ioos:station:USF.COMPS:FHP:1,2015-05-01T18:12:00Z,28.1530,-82.8010,0.17,1111122 
COMPS,ioos:station:USF.COMPS:FHP:1,2015-05-01T18:18:00Z,28.1530,-82.8010,0.156,1111122 
COMPS,ioos:station:USF.COMPS:FHP:1,2015-05-01T18:24:00Z,28.1530,-82.8010,0.14,1111122 
COMPS,ioos:station:USF.COMPS:FHP:1,2015-05-01T18:30:00Z,28.1530,-82.8010,0.121,1111122 
COMPS,ioos:station:USF.COMPS:FHP:1,2015-05-01T18:36:00Z,28.1530,-82.8010,0.107,1111122 
COMPS,ioos:station:USF.COMPS:FHP:1,2015-05-01T18:42:00Z,28.1530,-82.8010,0.08,1111122 
COMPS,ioos:station:USF.COMPS:FHP:1,2015-05-01T18:48:00Z,28.1530,-82.8010,0.059,1111122 
COMPS,ioos:station:USF.COMPS:FHP:1,2015-05-01T18:54:00Z,28.1530,-82.8010,0.037,1111122 
COMPS,ioos:station:USF.COMPS:FHP:1,2015-05-01T19:00:00Z,28.1530,-82.8010,0.012,1111122 
COMPS,ioos:station:USF.COMPS:FHP:1,2015-05-01T19:06:00Z,28.1530,-82.8010,0.0,1114422 
COMPS,ioos:station:USF.COMPS:FHP:1,2015-05-01T19:12:00Z,28.1530,-82.8010,-0.023,1111122 
COMPS,ioos:station:USF.COMPS:FHP:1,2015-05-01T19:18:00Z,28.1530,-82.8010,-0.044,1111122 
COMPS,ioos:station:USF.COMPS:FHP:1,2015-05-01T19:24:00Z,28.1530,-82.8010,-0.062,1111122 
COMPS,ioos:station:USF.COMPS:FHP:1,2015-05-01T19:30:00Z,28.1530,-82.8010,-0.083,1111122 
COMPS,ioos:station:USF.COMPS:FHP:1,2015-05-01T19:36:00Z,28.1530,-82.8010,-0.1,1111122 
COMPS,ioos:station:USF.COMPS:FHP:1,2015-05-01T19:42:00Z,28.1530,-82.8010,-0.118,1111122 
COMPS,ioos:station:USF.COMPS:FHP:1,2015-05-01T19:48:00Z,28.1530,-82.8010,-0.135,1111122 
COMPS,ioos:station:USF.COMPS:FHP:1,2015-05-01T19:54:00Z,28.1530,-82.8010,-0.15,1111122 
COMPS,ioos:station:USF.COMPS:FHP:1,2015-05-01T20:00:00Z,28.1530,-82.8010,-0.165,1111122 
COMPS,ioos:station:USF.COMPS:FHP:1,2015-05-01T20:06:00Z,28.1530,-82.8010,-0.176,1111122 
COMPS,ioos:station:USF.COMPS:FHP:1,2015-05-01T20:12:00Z,28.1530,-82.8010,-0.191,1111122 
COMPS,ioos:station:USF.COMPS:FHP:1,2015-05-01T20:18:00Z,28.1530,-82.8010,-0.204,1111122 
COMPS,ioos:station:USF.COMPS:FHP:1,2015-05-01T20:24:00Z,28.1530,-82.8010,-0.218,1111122 
COMPS,ioos:station:USF.COMPS:FHP:1,2015-05-01T20:30:00Z,28.1530,-82.8010,-0.23,1111122 
COMPS,ioos:station:USF.COMPS:FHP:1,2015-05-01T20:36:00Z,28.1530,-82.8010,-0.242,1111122 
COMPS,ioos:station:USF.COMPS:FHP:1,2015-05-01T20:42:00Z,28.1530,-82.8010,-0.254,1111122 
COMPS,ioos:station:USF.COMPS:FHP:1,2015-05-01T20:48:00Z,28.1530,-82.8010,-0.265,1111122 
COMPS,ioos:station:USF.COMPS:FHP:1,2015-05-01T20:54:00Z,28.1530,-82.8010,-0.275,1111122 
COMPS,ioos:station:USF.COMPS:FHP:1,2015-05-01T21:00:00Z,28.1530,-82.8010,-0.282,1111122 
COMPS,ioos:station:USF.COMPS:FHP:1,2015-05-01T21:06:00Z,28.1530,-82.8010,-0.287,1111122 
COMPS,ioos:station:USF.COMPS:FHP:1,2015-05-01T21:12:00Z,28.1530,-82.8010,-0.295,1111122 
COMPS,ioos:station:USF.COMPS:FHP:1,2015-05-01T21:18:00Z,28.1530,-82.8010,-0.301,1111122 
COMPS,ioos:station:USF.COMPS:FHP:1,2015-05-01T21:24:00Z,28.1530,-82.8010,-0.31,1111122 
COMPS,ioos:station:USF.COMPS:FHP:1,2015-05-01T21:30:00Z,28.1530,-82.8010,-0.319,1111122 
COMPS,ioos:station:USF.COMPS:FHP:1,2015-05-01T21:36:00Z,28.1530,-82.8010,-0.325,1111122 
COMPS,ioos:station:USF.COMPS:FHP:1,2015-05-01T21:42:00Z,28.1530,-82.8010,-0.326,1111122 
COMPS,ioos:station:USF.COMPS:FHP:1,2015-05-01T21:48:00Z,28.1530,-82.8010,-0.332,1111122 
COMPS,ioos:station:USF.COMPS:FHP:1,2015-05-01T21:54:00Z,28.1530,-82.8010,-0.339,1111122 
COMPS,ioos:station:USF.COMPS:FHP:1,2015-05-01T22:00:00Z,28.1530,-82.8010,-0.346,1111122 
COMPS,ioos:station:USF.COMPS:FHP:1,2015-05-01T22:06:00Z,28.1530,-82.8010,-0.346,1111122 
COMPS,ioos:station:USF.COMPS:FHP:1,2015-05-01T22:12:00Z,28.1530,-82.8010,-0.346,1111122 
COMPS,ioos:station:USF.COMPS:FHP:1,2015-05-01T22:18:00Z,28.1530,-82.8010,-0.345,1111122 
COMPS,ioos:station:USF.COMPS:FHP:1,2015-05-01T22:24:00Z,28.1530,-82.8010,-0.342,1111122 
COMPS,ioos:station:USF.COMPS:FHP:1,2015-05-01T22:30:00Z,28.1530,-82.8010,-0.339,1111122 
COMPS,ioos:station:USF.COMPS:FHP:1,2015-05-01T22:36:00Z,28.1530,-82.8010,-0.336,1111122 
COMPS,ioos:station:USF.COMPS:FHP:1,2015-05-01T22:42:00Z,28.1530,-82.8010,-0.333,1111122 
COMPS,ioos:station:USF.COMPS:FHP:1,2015-05-01T22:48:00Z,28.1530,-82.8010,-0.326,1111122 
COMPS,ioos:station:USF.COMPS:FHP:1,2015-05-01T22:54:00Z,28.1530,-82.8010,-0.318,1111122 
COMPS,ioos:station:USF.COMPS:FHP:1,2015-05-01T23:00:00Z,28.1530,-82.8010,-0.307,1111122 
COMPS,ioos:station:USF.COMPS:FHP:1,2015-05-01T23:12:00Z,28.1530,-82.8010,-0.287,1111122 
COMPS,ioos:station:USF.COMPS:FHP:1,2015-05-01T23:18:00Z,28.1530,-82.8010,-0.278,1111122 
COMPS,ioos:station:USF.COMPS:FHP:1,2015-05-01T23:24:00Z,28.1530,-82.8010,-0.264,1111122 
COMPS,ioos:station:USF.COMPS:FHP:1,2015-05-01T23:30:00Z,28.1530,-82.8010,-0.254,1111122 
COMPS,ioos:station:USF.COMPS:FHP:1,2015-05-01T23:36:00Z,28.1530,-82.8010,-0.242,1111122 
COMPS,ioos:station:USF.COMPS:FHP:1,2015-05-01T23:42:00Z,28.1530,-82.8010,-0.23,1111122 
COMPS,ioos:station:USF.COMPS:FHP:1,2015-05-01T23:48:00Z,28.1530,-82.8010,-0.216,1111122 
COMPS,ioos:station:USF.COMPS:FHP:1,2015-05-01T23:54:00Z,28.1530,-82.8010,-0.204,1111122 
COMPS,ioos:station:USF.COMPS:FHP:1,2015-05-02T00:00:00Z,28.1530,-82.8010,-0.186,1111122 
COMPS,ioos:station:USF.COMPS:FHP:1,2015-05-02T00:06:00Z,28.1530,-82.8010,-0.176,1111122 
COMPS,ioos:station:USF.COMPS:FHP:1,2015-05-02T00:12:00Z,28.1530,-82.8010,-0.159,1111122 
COMPS,ioos:station:USF.COMPS:FHP:1,2015-05-02T00:18:00Z,28.1530,-82.8010,-0.145,1111122 
COMPS,ioos:station:USF.COMPS:FHP:1,2015-05-02T00:24:00Z,28.1530,-82.8010,-0.133,1111122 
COMPS,ioos:station:USF.COMPS:FHP:1,2015-05-02T00:30:00Z,28.1530,-82.8010,-0.121,1111122 
COMPS,ioos:station:USF.COMPS:FHP:1,2015-05-02T00:36:00Z,28.1530,-82.8010,-0.107,1111122 
COMPS,ioos:station:USF.COMPS:FHP:1,2015-05-02T00:42:00Z,28.1530,-82.8010,-0.089,1111122 
COMPS,ioos:station:USF.COMPS:FHP:1,2015-05-02T00:48:00Z,28.1530,-82.8010,-0.075,1111122 
COMPS,ioos:station:USF.COMPS:FHP:1,2015-05-02T00:54:00Z,28.1530,-82.8010,-0.056,1111122 
COMPS,ioos:station:USF.COMPS:FHP:1,2015-05-02T01:00:00Z,28.1530,-82.8010,-0.043,1111122 
COMPS,ioos:station:USF.COMPS:FHP:1,2015-05-02T01:06:00Z,28.1530,-82.8010,-0.023,1111122 
COMPS,ioos:station:USF.COMPS:FHP:1,2015-05-02T01:12:00Z,28.1530,-82.8010,-0.011,1111122 
COMPS,ioos:station:USF.COMPS:FHP:1,2015-05-02T01:18:00Z,28.1530,-82.8010,0.003,1111122 
COMPS,ioos:station:USF.COMPS:FHP:1,2015-05-02T01:30:00Z,28.1530,-82.8010,0.034,1111122 
COMPS,ioos:station:USF.COMPS:FHP:1,2015-05-02T01:36:00Z,28.1530,-82.8010,0.051,1111122 
COMPS,ioos:station:USF.COMPS:FHP:1,2015-05-02T01:42:00Z,28.1530,-82.8010,0.066,1111122 
COMPS,ioos:station:USF.COMPS:FHP:1,2015-05-02T01:48:00Z,28.1530,-82.8010,0.082,1111122 
COMPS,ioos:station:USF.COMPS:FHP:1,2015-05-02T01:54:00Z,28.1530,-82.8010,0.097,1111122 
COMPS,ioos:station:USF.COMPS:FHP:1,2015-05-02T02:00:00Z,28.1530,-82.8010,0.111,1111122 
COMPS,ioos:station:USF.COMPS:FHP:1,2015-05-02T02:06:00Z,28.1530,-82.8010,0.125,1111122 
COMPS,ioos:station:USF.COMPS:FHP:1,2015-05-02T02:12:00Z,28.1530,-82.8010,0.138,1111122 
COMPS,ioos:station:USF.COMPS:FHP:1,2015-05-02T02:18:00Z,28.1530,-82.8010,0.147,1111122 
COMPS,ioos:station:USF.COMPS:FHP:1,2015-05-02T02:24:00Z,28.1530,-82.8010,0.161,1111122 
COMPS,ioos:station:USF.COMPS:FHP:1,2015-05-02T02:30:00Z,28.1530,-82.8010,0.173,1111122 
COMPS,ioos:station:USF.COMPS:FHP:1,2015-05-02T02:36:00Z,28.1530,-82.8010,0.184,1111122 
COMPS,ioos:station:USF.COMPS:FHP:1,2015-05-02T02:42:00Z,28.1530,-82.8010,0.194,1111122 
COMPS,ioos:station:USF.COMPS:FHP:1,2015-05-02T03:00:00Z,28.1530,-82.8010,0.228,1111122 
COMPS,ioos:station:USF.COMPS:FHP:1,2015-05-02T03:06:00Z,28.1530,-82.8010,0.238,1111122 
COMPS,ioos:station:USF.COMPS:FHP:1,2015-05-02T03:12:00Z,28.1530,-82.8010,0.245,1111122 
COMPS,ioos:station:USF.COMPS:FHP:1,2015-05-02T03:18:00Z,28.1530,-82.8010,0.254,1111122 
COMPS,ioos:station:USF.COMPS:FHP:1,2015-05-02T03:24:00Z,28.1530,-82.8010,0.252,1111122 
COMPS,ioos:station:USF.COMPS:FHP:1,2015-05-02T03:30:00Z,28.1530,-82.8010,0.254,1111122 
COMPS,ioos:station:USF.COMPS:FHP:1,2015-05-02T03:36:00Z,28.1530,-82.8010,0.253,1111122 
COMPS,ioos:station:USF.COMPS:FHP:1,2015-05-02T03:42:00Z,28.1530,-82.8010,0.258,1111122 